sat.trackr.live / text

‹ back to catalog

STARLINK-2373

NORAD 47796 · 2021-018K

PAYLOAD ACTIVE UNKNOWN

§ Identity

Operator
Country
US
Launch date
2021-03-11
Launch site
AFETR
Launch vehicle
Mass (kg)
RCS (m²)

Purposes: comms

External: N2YO · Heavens-Above · Gunter

§ Orbital elements

Epoch: 2026-05-24T23:40:02.204832Z

Period
93.97 min
Inclination
53.1582°
Eccentricity
0.0001399
Mean motion
15.32409427 rev/d
Perigee alt
467.7 km
Apogee alt
469.6 km
Semi-major
6,846.8 km
B*
1.2427e-3
RAAN
244.1397°
Arg perigee
26.3760°
Mean anomaly
333.7313°
Rev number
28,845

§ Raw data

STARLINK-23731 47796U 21018K   26144.98613663  .00039270  00000+0  12427-2 0  99922 47796  53.1582 244.1397 0001399  26.3760 333.7313 15.32409427288452

JSON: /api/v1/satellites/47796 · /tle

For live sub-satellite position, see the globe view (requires WebGL).

§ Visibility from observer

Set your observer location to see the next 7 days of passes ≥ 10°. The values pass through the URL so the page stays shareable.

No JS? Fill the form by hand. The geolocation button needs JavaScript.